TRA1Z LGZA-EHAM

Flight info

Callsign TRA1Z
Flight time N/A
Altitude 38000
Route OSDES UN1 LATAN DCT XOLTA DCT IXONA DCT ROTAR DCT MOBDO DCT SOTOV DCT IRBIR DCT ASPAT DCT MASEK DCT MAPOX DCT NORKU
Aircraft B738/M-SDE2E3FGHIJ1RWXYZ/LB1

Departure

Time 2026-04-25 17:26
Airport Zakynthos International Airport Dionysios Solomos (LGZA)

Arrival

Time N/A
Airport Amsterdam Airport Schiphol (EHAM)
Time Latitude Longitude Altitude Speed Heading
2026-04-25 16:43 37.75369 20.88536 19 ft 0 kts 72°
2026-04-25 17:19 37.75364 20.88514 19 ft 4 kts 79°
2026-04-25 17:20 37.75362 20.88480 19 ft 4 kts 95°
2026-04-25 17:20 37.75368 20.88450 21 ft 4 kts 131°
2026-04-25 17:20 37.75379 20.88439 21 ft 1 kts 163°
2026-04-25 17:23 37.75377 20.88440 19 ft 2 kts 163°
2026-04-25 17:23 37.75349 20.88451 19 ft 7 kts 163°
2026-04-25 17:23 37.75288 20.88473 19 ft 11 kts 163°
2026-04-25 17:23 37.75200 20.88507 19 ft 15 kts 163°
2026-04-25 17:24 37.75100 20.88518 19 ft 15 kts 208°
2026-04-25 17:24 37.74989 20.88466 19 ft 20 kts 171°
2026-04-25 17:24 37.74849 20.88517 19 ft 22 kts 163°
2026-04-25 17:24 37.74695 20.88574 20 ft 24 kts 163°
2026-04-25 17:25 37.74527 20.88637 21 ft 26 kts 163°
2026-04-25 17:25 37.74393 20.88667 19 ft 17 kts 197°
2026-04-25 17:25 37.74342 20.88700 19 ft 4 kts 78°
2026-04-25 17:25 37.74362 20.88699 20 ft 6 kts 342°
2026-04-25 17:26 37.74596 20.88612 20 ft 74 kts 343°
2026-04-25 17:26 37.75333 20.88336 20 ft 144 kts 343°
2026-04-25 17:26 37.76382 20.87942 574 ft 159 kts 344°
2026-04-25 17:26 37.77426 20.87551 1521 ft 157 kts 343°
2026-04-25 17:27 37.78515 20.87131 2094 ft 178 kts 342°
2026-04-25 17:27 37.79789 20.86630 2475 ft 201 kts 342°
2026-04-25 17:27 37.81161 20.86093 3051 ft 211 kts 343°
2026-04-25 17:27 37.81621 20.85913 3277 ft 213 kts 343°
2026-04-25 17:28 37.84026 20.84974 4656 ft 219 kts 345°
2026-04-25 17:28 37.85503 20.84400 5420 ft 225 kts 345°
2026-04-25 17:28 37.87085 20.84114 5917 ft 242 kts
2026-04-25 17:28 37.88772 20.84687 6317 ft 260 kts 27°
2026-04-25 17:29 37.90402 20.85742 7071 ft 266 kts 29°
2026-04-25 17:29 37.92059 20.86837 7922 ft 269 kts 29°
2026-04-25 17:29 37.93725 20.87942 8816 ft 272 kts 28°
2026-04-25 17:29 37.95415 20.89062 9678 ft 275 kts 28°
2026-04-25 17:30 37.97168 20.90093 10401 ft 285 kts 18°
2026-04-25 17:30 37.99218 20.90447 10629 ft 311 kts
2026-04-25 17:30 38.01460 20.90575 10926 ft 332 kts
2026-04-25 17:30 38.03795 20.90680 11602 ft 338 kts
2026-04-25 17:31 38.06151 20.90786 12425 ft 340 kts
2026-04-25 17:31 38.08522 20.90903 13258 ft 342 kts
2026-04-25 17:31 38.10911 20.91029 14030 ft 346 kts
2026-04-25 17:31 38.13327 20.91162 14726 ft 349 kts
2026-04-25 17:32 38.15730 20.91298 15426 ft 352 kts
2026-04-25 17:32 38.18182 20.91438 16134 ft 354 kts